CW0214 Weather Reports


time (UTC)temp
C
wind
direction
speed
KPH
gust
KPH
rain 1hr
cm
rain 24hr
cm
rain mn
cm
humidity
%
barometer
mb
20260903211904 34 186 0.0 0.0 0.00 0.00 0.00 26 1019.0
20260903211405 34 186 1.6 4.8 0.00 0.00 0.00 26 1019.2
20260903210906 34 186 3.2 4.8 0.00 0.00 0.00 26 1019.1
20260903210405 34 186 1.6 4.8 0.00 0.00 0.00 26 1019.0
20260903205404 34 186 1.6 8.0 0.00 0.00 0.00 25 1019.0
20260903204904 34 186 4.8 9.7 0.00 0.00 0.00 26 1019.0
20260903203904 34 186 1.6 3.2 0.00 0.00 0.00 27 1019.0
20260903203405 34 186 0.0 4.8 0.00 0.00 0.00 27 1019.0
20260903202904 35 186 3.2 8.0 0.00 0.00 0.00 27 1018.9
20260903202405 35 186 3.2 4.8 0.00 0.00 0.00 26 1018.9
20260903201905 35 186 0.0 0.0 0.00 0.00 0.00 26 1018.8
20260903201404 35 186 0.0 0.0 0.00 0.00 0.00 25 1018.7
20260903200905 35 186 0.0 0.0 0.00 0.00 0.00 25 1018.7
20260903195904 36 186 3.2 9.7 0.00 0.00 0.00 24 1018.5
20260903195404 36 212 1.6 9.7 0.00 0.00 0.00 24 1018.4
20260903194904 36 269 3.2 8.0 0.00 0.00 0.00 24 1018.4
20260903193904 36 241 0.0 4.8 0.00 0.00 0.00 24 1018.2
20260903193405 36 241 3.2 8.0 0.00 0.00 0.00 24 1018.2
20260903192905 36 241 3.2 4.8 0.00 0.00 0.00 24 1018.1
20260903192405 36 241 4.8 8.0 0.00 0.00 0.00 23 1018.2
20260903191405 37 238 4.8 8.0 0.00 0.00 0.00 23 1018.1
20260903190906 37 224 3.2 8.0 0.00 0.00 0.00 22 1018.1
20260903190405 37 224 1.6 3.2 0.00 0.00 0.00 22 1018.1
20260903184906 37 224 0.0 3.2 0.00 0.00 0.00 21 1018.1
20260903184406 37 224 0.0 1.6 0.00 0.00 0.00 22 1018.1
20260903183905 37 224 0.0 1.6 0.00 0.00 0.00 22 1018.1
20260903183407 38 224 0.0 3.2 0.00 0.00 0.00 21 1018.1
20260903182905 38 224 0.0 1.6 0.00 0.00 0.00 21 1018.1
20260903182406 38 224 1.6 8.0 0.00 0.00 0.00 21 1018.1
20260903181905 38 224 0.0 3.2 0.00 0.00 0.00 20 1018.1
20260903181405 39 224 0.0 0.0 0.00 0.00 0.00 20 1018.2
20260903180905 39 224 0.0 4.8 0.00 0.00 0.00 20 1018.2
20260903175905 40 224 0.0 3.2 0.00 0.00 0.00 19 1018.1
20260903174905 40 224 0.0 1.6 0.00 0.00 0.00 19 1018.2
20260903174405 40 224 3.2 8.0 0.00 0.00 0.00 18 1018.1
20260903173905 40 224 4.8 8.0 0.00 0.00 0.00 18 1018.2
20260903173405 40 224 3.2 8.0 0.00 0.00 0.00 18 1018.2
20260903172906 40 224 1.6 4.8 0.00 0.00 0.00 18 1018.2
20260903172405 40 224 0.0 1.6 0.00 0.00 0.00 18 1018.3
20260903171906 40 224 3.2 9.7 0.00 0.00 0.00 18 1018.2
20260903171406 40 242 3.2 8.0 0.00 0.00 0.00 18 1018.3
20260903170906 40 242 1.6 9.7 0.00 0.00 0.00 18 1018.2
20260903170405 40 237 8.0 11.3 0.00 0.00 0.00 18 1018.3
20260903165905 40 221 1.6 4.8 0.00 0.00 0.00 18 1018.3
20260903165406 40 221 0.0 4.8 0.00 0.00 0.00 18 1018.4
20260903164906 40 221 1.6 4.8 0.00 0.00 0.00 18 1018.5
20260903163905 40 221 3.2 9.7 0.00 0.00 0.00 18 1018.6
20260903163405 40 221 3.2 8.0 0.00 0.00 0.00 18 1018.6
20260903162905 40 221 6.4 12.9 0.00 0.00 0.00 18 1018.7
20260903162405 40 215 4.8 8.0 0.00 0.00 0.00 18 1018.6
20260903161905 40 206 0.0 4.8 0.00 0.00 0.00 18 1018.6
20260903161406 40 206 0.0 8.0 0.00 0.00 0.00 18 1018.5
20260903160905 40 242 0.0 4.8 0.00 0.00 0.00 19 1018.5
20260903160405 40 304 0.0 8.0 0.00 0.00 0.00 18 1018.5
20260903155905 40 302 4.8 8.0 0.00 0.00 0.00 18 1018.7
20260903155405 40 219 0.0 4.8 0.00 0.00 0.00 18 1018.7
20260903154905 40 219 8.0 11.3 0.00 0.00 0.00 18 1018.7
20260903153905 40 286 1.6 8.0 0.00 0.00 0.00 18 1018.8
20260903153405 40 329 1.6 4.8 0.00 0.00 0.00 18 1018.7
20260903152905 41 161 0.0 1.6 0.00 0.00 0.00 18 1018.8
20260903152405 41 161 3.2 9.7 0.00 0.00 0.00 18 1018.9
20260903151905 40 125 0.0 1.6 0.00 0.00 0.00 18 1018.9
20260903151405 40 125 3.2 8.0 0.00 0.00 0.00 18 1019.0
20260903150906 40 171 3.2 11.3 0.00 0.00 0.00 18 1019.1
20260903150405 40 257 0.0 8.0 0.00 0.00 0.00 18 1019.2
20260903145905 40 253 1.6 8.0 0.00 0.00 0.00 18 1019.2
20260903145405 40 138 4.8 11.3 0.00 0.00 0.00 18 1019.2
20260903144905 40 169 1.6 9.7 0.00 0.00 0.00 19 1019.3
20260903144405 40 198 8.0 11.3 0.00 0.00 0.00 19 1019.3
20260903143405 39 201 8.0 12.9 0.00 0.00 0.00 19 1019.3
20260903142406 39 228 8.0 14.5 0.00 0.00 0.00 19 1019.7
20260903141905 39 204 6.4 11.3 0.00 0.00 0.00 19 1019.8
20260903141405 40 166 8.0 12.9 0.00 0.00 0.00 19 1019.8
20260903140905 40 230 3.2 12.9 0.00 0.00 0.00 19 1019.9
20260903140406 40 187 4.8 11.3 0.00 0.00 0.00 19 1019.9
20260903135905 40 259 4.8 9.7 0.00 0.00 0.00 19 1019.9
20260903134905 38 347 4.8 11.3 0.00 0.00 0.00 20 1019.9
20260903133905 39 215 8.0 12.9 0.00 0.00 0.00 20 1020.0
20260903133406 38 201 8.0 14.5 0.00 0.00 0.00 20 1020.0
20260903132905 38 224 8.0 12.9 0.00 0.00 0.00 20 1020.2
20260903132405 39 347 6.4 11.3 0.00 0.00 0.00 20 1020.2
20260903131905 39 217 6.4 9.7 0.00 0.00 0.00 20 1020.3
20260903131405 39 224 3.2 9.7 0.00 0.00 0.00 20 1020.3
20260903130905 39 110 0.0 3.2 0.00 0.00 0.00 20 1020.4
20260903125905 39 292 0.0 1.6 0.00 0.00 0.00 20 1020.4
20260903125405 38 292 0.0 1.6 0.00 0.00 0.00 21 1020.5
20260903124905 37 292 0.0 8.0 0.00 0.00 0.00 21 1020.6
20260903123904 37 286 3.2 9.7 0.00 0.00 0.00 21 1020.6
20260903122905 37 244 1.6 14.5 0.00 0.00 0.00 21 1020.6
20260903122405 38 174 11.3 14.5 0.00 0.00 0.00 21 1020.6
20260903121905 37 229 9.7 12.9 0.00 0.00 0.00 21 1020.7
20260903121405 37 194 3.2 9.7 0.00 0.00 0.00 21 1020.7
20260903120405 37 355 3.2 12.9 0.00 0.00 0.00 22 1020.7
20260903115405 37 298 4.8 14.5 0.00 0.00 0.00 22 1020.9
20260903114905 37 317 0.0 1.6 0.00 0.00 0.00 23 1020.9
20260903114405 37 288 4.8 11.3 0.00 0.00 0.00 23 1020.9
20260903113904 36 5 3.2 11.3 0.00 0.00 0.00 24 1020.9
20260903113405 36 313 4.8 11.3 0.00 0.00 0.00 24 1021.0
20260903112905 36 329 3.2 11.3 0.00 0.00 0.00 25 1021.0
20260903112405 35 332 0.0 11.3 0.00 0.00 0.00 26 1021.0
20260903111405 35 311 4.8 8.0 0.00 0.00 0.00 26 1021.0
20260903110904 35 316 0.0 11.3 0.00 0.00 0.00 28 1021.1
20260903110404 34 334 1.6 9.7 0.00 0.00 0.00 28 1021.1
20260903105905 34 10 4.8 9.7 0.00 0.00 0.00 29 1021.2
20260903105405 34 302 1.6 8.0 0.00 0.00 0.00 30 1021.2
20260903104905 33 329 3.2 9.7 0.00 0.00 0.00 31 1021.3
20260903104405 33 329 0.0 8.0 0.00 0.00 0.00 31 1021.2
20260903103905 33 233 1.6 9.7 0.00 0.00 0.00 32 1021.2
20260903103405 32 293 6.4 11.3 0.00 0.00 0.00 32 1021.2
20260903102904 32 312 8.0 12.9 0.00 0.00 0.00 33 1021.2
20260903102405 32 248 1.6 9.7 0.00 0.00 0.00 36 1021.2
20260903101905 31 277 3.2 11.3 0.00 0.00 0.00 37 1021.1
20260903101405 31 335 4.8 12.9 0.00 0.00 0.00 37 1021.2
20260903100905 30 271 6.4 11.3 0.00 0.00 0.00 38 1021.1
20260903100404 30 281 4.8 11.3 0.00 0.00 0.00 40 1021.0
20260903095905 30 298 4.8 12.9 0.00 0.00 0.00 41 1021.1
20260903094405 28 297 1.6 8.0 0.00 0.00 0.00 46 1021.0
20260903093904 27 182 3.2 9.7 0.00 0.00 0.00 46 1021.0
20260903093405 27 240 8.0 12.9 0.00 0.00 0.00 47 1021.0
20260903092905 27 249 8.0 14.5 0.00 0.00 0.00 48 1021.0
20260903092405 26 206 9.7 14.5 0.00 0.00 0.00 49 1021.1
20260903091905 26 256 9.7 14.5 0.00 0.00 0.00 48 1021.2
20260903091405 26 240 8.0 11.3 0.00 0.00 0.00 50 1021.2
20260903090404 25 240 8.0 12.9 0.00 0.00 0.00 52 1021.2
20260903085405 24 326 6.4 14.5 0.00 0.00 0.00 52 1021.3
20260903084905 24 350 3.2 11.3 0.00 0.00 0.00 54 1021.2
20260903084405 23 269 4.8 9.7 0.00 0.00 0.00 53 1021.2
20260903083905 23 294 4.8 9.7 0.00 0.00 0.00 54 1021.2
20260903083405 23 320 6.4 9.7 0.00 0.00 0.00 54 1021.3
20260903082904 23 311 4.8 9.7 0.00 0.00 0.00 56 1021.2
20260903082405 22 329 4.8 11.3 0.00 0.00 0.00 58 1021.3
20260903081905 22 320 1.6 9.7 0.00 0.00 0.00 60 1021.2
20260903081406 21 281 1.6 4.8 0.00 0.00 0.00 67 1021.3
20260903080905 21 281 3.2 11.3 0.00 0.00 0.00 63 1021.2
20260903080405 21 284 1.6 9.7 0.00 0.00 0.00 65 1021.2
20260903075904 21 289 6.4 12.9 0.00 0.00 0.00 66 1021.1
20260903075404 21 304 6.4 9.7 0.00 0.00 0.00 65 1021.1
20260903074904 21 253 8.0 12.9 0.00 0.00 0.00 65 1021.2
20260903074404 20 334 3.2 11.3 0.00 0.00 0.00 66 1021.2
20260903073904 20 271 8.0 11.3 0.00 0.00 0.00 66 1021.1
20260903073405 20 281 4.8 9.7 0.00 0.00 0.00 67 1021.1
20260903072405 20 169 0.0 1.6 0.00 0.00 0.00 72 1021.1
20260903071904 20 169 0.0 1.6 0.00 0.00 0.00 73 1021.0
20260903070905 18 169 0.0 1.6 0.00 0.00 0.00 83 1020.9
20260903065905 18 169 0.0 0.0 0.00 0.00 0.00 86 1021.0
20260903065405 17 169 0.0 0.0 0.00 0.00 0.00 86 1021.0
20260903064904 17 169 0.0 0.0 0.00 0.00 0.00 86 1020.9
20260903064405 17 169 0.0 0.0 0.00 0.00 0.00 86 1020.9
20260903063907 17 169 0.0 0.0 0.00 0.00 0.00 86 1020.9
20260903063404 17 169 0.0 0.0 0.00 0.00 0.00 86 1020.8
20260903062905 17 169 0.0 0.0 0.00 0.00 0.00 85 1020.8
20260903061905 17 169 0.0 0.0 0.00 0.00 0.00 85 1020.6
20260903061405 17 169 0.0 0.0 0.00 0.00 0.00 85 1020.6
20260903060905 17 169 0.0 0.0 0.00 0.00 0.00 85 1020.5
20260903060405 17 169 0.0 0.0 0.00 0.00 0.00 85 1020.4
20260903055904 17 169 0.0 0.0 0.00 0.00 0.00 85 1020.3
20260903055404 17 169 0.0 0.0 0.00 0.00 0.00 86 1020.3
20260903054905 17 169 0.0 0.0 0.00 0.00 0.00 86 1020.3
20260903054404 17 169 0.0 0.0 0.00 0.00 0.00 86 1020.2
20260903053405 17 169 0.0 0.0 0.00 0.00 0.00 86 1020.2
20260903052905 17 169 0.0 0.0 0.00 0.00 0.00 87 1020.2
20260903052404 17 169 0.0 0.0 0.00 0.00 0.00 86 1020.1
20260903051905 17 169 0.0 0.0 0.00 0.00 0.00 86 1020.1
20260903051405 17 169 0.0 0.0 0.00 0.00 0.00 86 1020.1
20260903050905 17 169 0.0 0.0 0.00 0.00 0.00 86 1020.1
20260903050404 17 169 0.0 0.0 0.00 0.00 0.00 86 1020.1
20260903045904 17 169 0.0 0.0 0.00 0.00 0.00 85 1020.0
20260903045405 17 169 0.0 0.0 0.00 0.00 0.00 84 1020.0
20260903044904 17 169 0.0 0.0 0.00 0.00 0.00 84 1019.9
20260903044405 17 169 0.0 0.0 0.00 0.00 0.00 85 1019.8
20260903043905 17 169 0.0 0.0 0.00 0.00 0.00 84 1019.8
20260903043405 18 169 0.0 0.0 0.00 0.00 0.00 82 1019.8
20260903042904 18 169 0.0 0.0 0.00 0.00 0.00 81 1019.7
20260903042404 19 169 0.0 0.0 0.00 0.00 0.00 80 1019.7
20260903041904 19 169 0.0 0.0 0.00 0.00 0.00 82 1019.7
20260903040904 18 169 0.0 0.0 0.00 0.00 0.00 82 1019.8
20260903040404 18 169 0.0 0.0 0.00 0.00 0.00 82 1019.8
20260903035905 19 169 0.0 0.0 0.00 0.00 0.00 82 1019.8
20260903035404 18 169 0.0 0.0 0.00 0.00 0.00 82 1019.8
20260903034905 18 169 0.0 0.0 0.00 0.00 0.00 83 1019.7
20260903034405 18 169 0.0 0.0 0.00 0.00 0.00 82 1019.8
20260903033905 18 169 0.0 0.0 0.00 0.00 0.00 83 1019.8
20260903033404 18 169 0.0 0.0 0.00 0.00 0.00 83 1019.8
20260903032905 18 169 0.0 0.0 0.00 0.00 0.00 82 1019.8
20260903032405 18 169 0.0 0.0 0.00 0.00 0.00 82 1019.8
20260903031905 19 169 0.0 0.0 0.00 0.00 0.00 83 1019.7
20260903031405 19 169 0.0 0.0 0.00 0.00 0.00 83 1019.8
20260903030904 18 169 0.0 0.0 0.00 0.00 0.00 84 1019.9
20260903030404 18 169 0.0 0.0 0.00 0.00 0.00 84 1019.8
20260903025904 18 169 0.0 0.0 0.00 0.00 0.00 83 1019.8
20260903024905 19 169 0.0 0.0 0.00 0.00 0.00 80 1019.9
20260903024404 20 169 0.0 0.0 0.00 0.00 0.00 79 1019.9
20260903023904 20 169 0.0 0.0 0.00 0.00 0.00 81 1019.9
20260903023405 20 169 0.0 0.0 0.00 0.00 0.00 82 1019.9
20260903022904 20 169 0.0 0.0 0.00 0.00 0.00 82 1019.9
20260903022404 20 169 0.0 0.0 0.00 0.00 0.00 82 1020.0
20260903021904 20 169 0.0 0.0 0.00 0.00 0.00 82 1020.0
20260903021405 19 169 0.0 0.0 0.00 0.00 0.00 82 1020.0
20260903020904 19 169 0.0 0.0 0.00 0.00 0.00 82 1019.9
20260903020405 20 169 0.0 0.0 0.00 0.00 0.00 81 1019.9
20260903015405 20 169 0.0 0.0 0.00 0.00 0.00 81 1019.9
20260903014904 20 169 0.0 0.0 0.00 0.00 0.00 81 1019.9
20260903014404 20 169 0.0 0.0 0.00 0.00 0.00 81 1019.9
20260903013905 20 169 0.0 0.0 0.00 0.00 0.00 81 1020.0
20260903013405 20 169 0.0 0.0 0.00 0.00 0.00 80 1020.0
20260903012404 20 169 0.0 0.0 0.00 0.00 0.00 80 1020.0
20260903011904 20 169 0.0 0.0 0.00 0.00 0.00 79 1020.1
20260903011404 20 169 0.0 0.0 0.00 0.00 0.00 79 1020.1
20260903010405 20 169 0.0 0.0 0.00 0.00 0.00 79 1020.2
20260903005904 20 169 0.0 0.0 0.00 0.00 0.00 79 1020.2
20260903004905 20 169 0.0 0.0 0.00 0.00 0.00 78 1020.3
20260903004405 21 169 0.0 0.0 0.00 0.00 0.00 78 1020.4
20260903003905 21 169 0.0 0.0 0.00 0.00 0.00 77 1020.4
20260903003405 21 169 0.0 0.0 0.00 0.00 0.00 77 1020.4
20260903002405 21 169 0.0 0.0 0.00 0.00 0.00 76 1020.3
20260903001905 21 169 0.0 0.0 0.00 0.00 0.00 76 1020.3
20260903001405 21 169 0.0 0.0 0.00 0.00 0.00 75 1020.2
20260903000905 21 169 0.0 0.0 0.00 0.00 0.00 75 1020.2
20260903000404 21 169 0.0 0.0 0.00 0.00 0.00 75 1020.3
20260902235904 21 169 0.0 0.0 0.00 0.00 0.00 75 1020.2
20260902235404 21 169 0.0 0.0 0.00 0.00 0.00 74 1020.2
20260902234904 22 169 0.0 0.0 0.00 0.00 0.00 74 1020.3
20260902234405 22 169 0.0 0.0 0.00 0.00 0.00 74 1020.2
20260902232905 22 169 0.0 0.0 0.00 0.00 0.00 74 1020.2
20260902231904 22 169 0.0 0.0 0.00 0.00 0.00 73 1020.1
20260902231404 22 169 0.0 0.0 0.00 0.00 0.00 72 1020.1
20260902230904 22 169 0.0 0.0 0.00 0.00 0.00 72 1020.2
20260902230404 22 169 0.0 1.6 0.00 0.00 0.00 71 1020.2
20260902225904 22 169 0.0 0.0 0.00 0.00 0.00 70 1020.2
20260902225405 23 169 1.6 8.0 0.00 0.00 0.00 68 1020.2
20260902224904 23 169 0.0 3.2 0.00 0.00 0.00 66 1020.1
20260902224405 23 169 4.8 9.7 0.00 0.00 0.00 66 1020.1
20260902223404 23 157 1.6 8.0 0.00 0.00 0.00 66 1020.1
20260902222905 23 157 3.2 8.0 0.00 0.00 0.00 65 1020.0
20260902222404 24 157 4.8 9.7 0.00 0.00 0.00 65 1020.1
20260902221904 24 138 3.2 8.0 0.00 0.00 0.00 64 1020.1
20260902221405 24 138 3.2 8.0 0.00 0.00 0.00 64 1020.1
20260902220904 24 138 1.6 4.8 0.00 0.00 0.00 64 1020.1
20260902220405 24 138 1.6 4.8 0.00 0.00 0.00 64 1020.1
20260902215904 24 138 0.0 3.2 0.00 0.00 0.00 63 1020.1
20260902215404 24 138 1.6 4.8 0.00 0.00 0.00 62 1020.1
20260902214904 25 138 0.0 3.2 0.00 0.00 0.00 62 1020.1
20260902214405 25 138 1.6 11.3 0.00 0.00 0.00 62 1020.1
20260902213904 25 126 3.2 11.3 0.00 0.00 0.00 61 1020.1
20260902213404 25 186 0.0 9.7 0.00 0.00 0.00 61 1020.1
20260902212905 25 187 1.6 8.0 0.00 0.00 0.00 60 1020.1